Flag for Burundi Weather past 2 weeks in Muyinga, Burundi

Now
64 °F

Passing clouds.


Feels Like: 64 °F
Forecast: 59 / 79 °F
Wind: No wind

Location: Kigali Airport

Current Time: Sep 22, 2014 at 4:56:29 AM

Latest Report: Sep 22, 2014 at 2:30 AM


Visibility: N/A

Pressure: 30.09 "Hg

Humidity: 94%

Dew point: 63 °F

Location of MuyingaLocation

Historic Weather in Muyinga — Graph

°F

Muyinga temperature yesterday

Maximum temperature yesterday: 81 °F (at 11:30 AM)
Minimum temperature yesterday: 59 °F (at 5:30 AM)
Average temperature yesterday: 68 °F

Past Weeks' High & Low Weather Summary

 TemperatureHumidityPressure
High86 °F (Sep 12, 3:00 PM)100% (Sep 7, 2:00 AM)30.30 "Hg (Sep 7, 2:00 AM)
Low52 °F (Sep 11, 2:00 AM)32% (Sep 12, 5:30 PM)30.01 "Hg (Sep 10, 4:00 PM)
Average70 °F74%30.13 "Hg
* Reported Sep 7 2:00 AM — Sep 22 2:30 AM, Muyinga, Weather by CustomWeather, © 2014

Note: Actual official high and low records may vary slightly from our data, if they occured in-between our weather recording intervals... More about our weather records

Advertising

Muyinga weather history for previous 24 hours

 ConditionsComfort  
Time TempWeatherWind HumidityBarometerVisibility
2:30 AM
Sep 22
64 °FPassing clouds.No wind94%30.09 "HgN/A
2:00 AM64 °FPassing clouds.3 mph94%30.09 "HgN/A
1:30 AM64 °FPassing clouds.5 mph100%30.09 "HgN/A
1:00 AM66 °FPassing clouds.5 mph88%30.09 "HgN/A
12:30 AM66 °FPassing clouds.8 mph94%30.12 "HgN/A
12:00 AM66 °FPassing clouds.3 mph94%30.12 "HgN/A
11:30 PM
Sep 21
66 °FPassing clouds.7 mph94%30.12 "HgN/A
11:00 PM66 °FPartly cloudy.3 mph94%30.15 "HgN/A
10:30 PM68 °FPartly cloudy.3 mph83%30.15 "HgN/A
10:00 PM68 °FPartly cloudy.No wind83%30.15 "HgN/A
9:30 PM68 °FPartly cloudy.No wind83%30.15 "HgN/A
8:30 PM70 °FPartly cloudy.5 mph78%30.12 "HgN/A
8:00 PM70 °FPartly cloudy.8 mph78%30.12 "HgN/A
7:30 PM70 °FPartly cloudy.8 mph78%30.09 "HgN/A
6:30 PM72 °FPassing clouds.5 mph78%30.07 "HgN/A
5:30 PM75 °FScattered clouds.9 mph61%30.09 "HgN/A
5:00 PM75 °FThunderstorms. Partly sunny.9 mph61%30.07 "HgN/A
2:00 PM81 °FWarm.13 mph58%30.12 "HgN/A
12:30 PM81 °FScattered clouds.5 mph58%30.12 "HgN/A
12:00 PM81 °FScattered clouds.7 mph58%30.15 "HgN/A
11:30 AM81 °FScattered clouds.9 mph62%30.15 "HgN/A
11:00 AM79 °FScattered clouds.3 mph61%30.18 "HgN/A
10:30 AM77 °FPassing clouds.5 mph69%30.18 "Hg5 mi
9:30 AM70 °FPassing clouds.5 mph88%30.21 "Hg5 mi
8:00 AM64 °FFog.3 mph100%30.18 "Hg3 mi
7:30 AM64 °FFog.3 mph100%30.18 "Hg3 mi
7:00 AM61 °FFog.No wind100%30.15 "Hg2 mi
6:30 AM61 °FFog.No wind100%30.12 "Hg2 mi
6:00 AM61 °FFog.No wind100%30.12 "Hg2 mi
5:30 AM59 °FPassing clouds.No wind100%30.09 "Hg4 mi
5:00 AM61 °FPassing clouds.No wind100%30.09 "HgN/A
4:00 AM61 °FPassing clouds.No wind100%30.09 "HgN/A
Weather by CustomWeather, © 2014

See weather overviewHow to use our weather pages